DW8785 Weather Reports


time (UTC)temp
C
wind
direction
speed
KPH
gust
KPH
rain 1hr
cm
rain 24hr
cm
rain mn
cm
humidity
%
barometer
mb
20260502163050 15 21 1.6 0.0 0.00 0.00 0.00 43 1019.2
20260502161538 15 32 1.6 0.0 0.00 0.00 0.00 43 1019.3
20260502151529 16 51 3.2 0.0 0.00 0.00 0.00 42 1019.7
20260502123038 15 80 6.4 0.0 0.00 0.00 0.00 40 1021.7
20260502121528 15 161 1.6 0.0 0.00 0.00 0.00 39 1021.7
20260502114520 15 141 3.2 0.0 0.00 0.00 0.00 44 1022.2
20260502113014 15 45 4.8 0.0 0.00 0.00 0.00 40 1022.6
20260502111512 14 65 4.8 0.0 0.00 0.00 0.00 41 1022.7
20260502110014 14 93 3.2 0.0 0.00 0.00 0.00 42 1022.7
20260502104502 15 96 4.8 0.0 0.00 0.00 0.00 45 1022.7
20260502103106 15 27 0.0 0.0 0.00 0.00 0.00 43 1023.1
20260502101610 13 42 6.4 0.0 0.00 0.00 0.00 44 1023.2
20260502100113 14 32 3.2 0.0 0.00 0.00 0.00 42 1023.3
20260502071500 12 49 1.6 0.0 0.00 0.00 0.00 41 1024.2
20260502070058 12 59 1.6 0.0 0.00 0.00 0.00 44 1024.1
20260502064603 12 34 0.0 0.0 0.00 0.00 0.00 42 1024.0
20260502063047 12 335 0.0 0.0 0.00 0.00 0.00 43 1024.0
20260502061546 12 21 0.0 0.0 0.00 0.00 0.00 43 1024.2
20260502060039 11 4 0.0 0.0 0.00 0.00 0.00 43 1024.2
20260502054534 11 3 0.0 0.0 0.00 0.00 0.00 42 1024.1
20260502053030 11 31 0.0 0.0 0.00 0.00 0.00 43 1024.0
20260502051526 11 21 0.0 0.0 0.00 0.00 0.00 43 1024.2
20260502050022 10 17 0.0 0.0 0.00 0.00 0.00 45 1024.0
20260502044517 10 4 0.0 0.0 0.00 0.00 0.00 44 1024.0
20260502043019 10 356 0.0 0.0 0.00 0.00 0.00 44 1024.1
20260502041518 10 13 0.0 0.0 0.00 0.00 0.00 44 1024.1
20260502040012 10 0 0.0 0.0 0.00 0.00 0.00 44 1023.9
20260502034600 9 332 0.0 0.0 0.00 0.00 0.00 44 1024.0
20260502033054 9 323 0.0 0.0 0.00 0.00 0.00 44 1023.9
20260502031550 9 339 0.0 0.0 0.00 0.00 0.00 45 1024.1
20260502030046 9 339 0.0 0.0 0.00 0.00 0.00 44 1024.0
20260502024550 9 337 0.0 0.0 0.00 0.00 0.00 44 1024.0
20260502023038 9 353 0.0 0.0 0.00 0.00 0.00 44 1024.1
20260502021534 9 339 0.0 0.0 0.00 0.00 0.00 45 1024.1
20260502020029 8 335 0.0 0.0 0.00 0.00 0.00 47 1024.1
20260502014531 9 342 0.0 0.0 0.00 0.00 0.00 48 1024.2
20260502013020 9 354 0.0 0.0 0.00 0.00 0.00 47 1024.3
20260502011516 9 359 0.0 0.0 0.00 0.00 0.00 48 1024.2
20260502010011 9 0 0.0 0.0 0.00 0.00 0.00 48 1024.3
20260502004507 9 330 0.0 0.0 0.00 0.00 0.00 49 1024.4
20260502003002 9 329 0.0 0.0 0.00 0.00 0.00 49 1024.5
20260502001559 9 336 0.0 0.0 0.00 0.00 0.00 49 1024.6
20260502000055 9 315 0.0 0.0 0.00 0.00 0.00 48 1024.6
20260501234551 9 332 0.0 0.0 0.00 0.00 0.00 46 1024.6
20260501233055 9 316 0.0 0.0 0.00 0.00 0.00 46 1024.5
20260501231548 9 323 0.0 0.0 0.00 0.00 0.00 45 1024.5
20260501230055 9 326 0.0 0.0 0.00 0.00 0.00 42 1024.6
20260501224539 9 325 0.0 0.0 0.00 0.00 0.00 39 1024.8
20260501223035 9 342 0.0 0.0 0.00 0.00 0.00 40 1024.6
20260501221534 9 340 0.0 0.0 0.00 0.00 0.00 40 1024.7
20260501220029 9 313 3.2 0.0 0.00 0.00 0.00 39 1024.6
20260501214524 9 309 0.0 0.0 0.00 0.00 0.00 40 1024.4
20260501213017 9 322 0.0 0.0 0.00 0.00 0.00 40 1024.3
20260501211514 9 325 0.0 0.0 0.00 0.00 0.00 40 1024.2
20260501210009 9 16 0.0 0.0 0.00 0.00 0.00 38 1024.4
20260501204506 9 23 0.0 0.0 0.00 0.00 0.00 38 1024.4
20260501203007 9 21 0.0 0.0 0.00 0.00 0.00 38 1024.3
20260501201504 9 0 0.0 0.0 0.00 0.00 0.00 38 1024.3
20260501200059 9 44 0.0 0.0 0.00 0.00 0.00 38 1024.4
20260501194602 9 44 0.0 0.0 0.00 0.00 0.00 39 1024.3
20260501193050 9 52 0.0 0.0 0.00 0.00 0.00 40 1024.0
20260501191546 9 62 0.0 0.0 0.00 0.00 0.00 41 1024.0
20260501190042 9 54 0.0 0.0 0.00 0.00 0.00 40 1023.9
20260501184538 9 52 0.0 0.0 0.00 0.00 0.00 42 1023.9
20260501183033 9 52 0.0 0.0 0.00 0.00 0.00 41 1023.7
20260501181530 9 52 0.0 0.0 0.00 0.00 0.00 42 1023.7
20260501180033 9 52 0.0 0.0 0.00 0.00 0.00 43 1023.8
20260501174535 9 59 0.0 0.0 0.00 0.00 0.00 42 1023.7
20260501173017 9 58 0.0 0.0 0.00 0.00 0.00 41 1023.7
20260501171513 10 48 0.0 0.0 0.00 0.00 0.00 40 1023.7